Regional Weather Roundup
Issued by NWS

Home | Current Version | Previous Version | Graphics & Text | Print | Product List | Glossary On
Versions: 1 2 3 4 5 6 7 8 9 10 11 12 13 14 15 16 17 18 19 20 21 22 23 24 25 26 27 28 29 30 31 32 33 34 35 36 37 38 39 40 41 42 43 44 45 46 47 48 49 50
982
ASUS44 KLIX 230305
RWRLA
LOUISIANA WEATHER ROUNDUP
NATIONAL WEATHER SERVICE NEW ORLEANS LA
1000 PM CDT TUE APR 22 2014

NOTE: "FAIR" INDICATES FEW OR NO CLOUDS BELOW 12,000 FEET WITH NO
      SIGNIFICANT WEATHER AND/OR OBSTRUCTIONS TO VISIBILITY.
      SKY/WX - SKY CONDITION AND SIGNIFICANT WEATHER.
      TMP - AIR TEMPERATURE.    DP   - DEWPOINT TEMPERATURE.
      RH  - RELATIVE HUMIDITY.  PRES - PRESSURE.
      HX  - HEAT INDEX.         WCI  - WIND CHILL INDEX.

*  THESE STATIONS ARE NOT NWS OR FAA STATIONS AND ARE NOT UNDER
   NWS QUALITY CONTROL.

LAZ040-048-061>063-065-066-069-230400-
SOUTHEAST LOUISIANA

CITY           SKY/WX    TMP DP  RH WIND       PRES   REMARKS
N.O. AUDUBON     N/A     67  64  91 MISG        N/A
N.O. INTL ARPT PTCLDY    70  64  81 N3        29.93R
N.O. LAKEFRONT CLEAR     70  66  87 N7        29.94R
N.O. DOWNTOWN* FAIR      73  61  64 N3        29.94R
SLIDELL        CLEAR     65  62  90 CALM      29.93R
BATON ROUGE    CLEAR     66  61  84 CALM      29.94R
BOOTHVILLE     CLEAR     70  68  93 W5        29.93R
BELLE CHASSE   PTCLDY    64  62  93 CALM      29.93R
BOGALUSA*        N/A     63  60  89 CALM      29.95R
GALLIANO*      CLEAR     71  67  88 SW3       29.94R
NEW ROADS*     FAIR      66  61  83 CALM      29.95R
GONZALES*      FAIR      65  64  93 CALM      29.94R
HAMMOND*       CLEAR     64  61  88 CALM      29.96R
HOUMA*           N/A     68  65  89 SW3       29.94R
PORT FOURCHON* PTCLDY    72  68  88 W7        29.95S

$$

LAZ041-044-053-054-230400-
SOUTHWEST LOUISIANA

CITY           SKY/WX    TMP DP  RH WIND       PRES   REMARKS
LAKE CHARLES   CLEAR     69  66  90 CALM      29.94R
LAFAYETTE      CLEAR     67  64  90 CALM      29.94R
PATTERSON      CLEAR     66  66 100 CALM      29.97R
SALT POINT       N/A     73  69  87 VRB3      29.93R
NEW IBERIA     CLEAR     69  61  75 N3        29.95R
CHENAULT AIRPK PTCLDY    70  66  88 SE3       29.95R FOG

$$

LAZ027-028-230400-
CENTRAL LOUISIANA

CITY           SKY/WX    TMP DP  RH WIND       PRES   REMARKS
FORT POLK      CLEAR     66  61  84 CALM      29.95R
ALEXANDRIA INT CLEAR     64  60  87 CALM      29.93R
ALEXANDRIA     CLEAR     63  60  90 CALM      29.95R

$$

LAZ001-002-230400-
NORTHWEST LOUISIANA

CITY           SKY/WX    TMP DP  RH WIND       PRES   REMARKS
SHREVEPORT     CLEAR     68  60  75 CALM      29.93R
BARKSDALE AFB  CLEAR     67  60  77 CALM      29.94R
DTN SHREVEPORT CLEAR     66  59  78 CALM      29.94R

$$

LAZ014-016-230400-
NORTHEAST LOUISIANA

CITY           SKY/WX    TMP DP  RH WIND       PRES   REMARKS
MONROE         CLEAR     62  60  93 CALM      29.95R
TALLULAH       CLEAR     70  61  73 N3        29.94R

$$




USA.gov is the U.S. government's official web portal to all federal, state and local government web resources and services.